Simultaneous Nadir Overpasses (SNOs) Predictions

Prediction of SNOs between METOP-A and TERRA Satellite Orbit:

Table of predicted SNOs for the next 14.0 days since TLE Epoch: 6/20/2015
Index Date (METOP-A) Time (METOP-A) Lat,Lon (METOP-A) SZA (METOP-A ) Date (TERRA) Time (TERRA) Lat,Lon (TERRA) SZA (TERRA ) Distance(km) Time Diff (sec)
1 06/22/2015 10:54:59 81.35, 64.45 60.89 06/22/2015 10:55:11 81.34, 64.26 60.87 3.31 12
2 06/22/2015 11:45:39 -81.35,-127.99 119.09 06/22/2015 11:44:37 -81.35,-127.85 119.10 2.39 62
3 06/25/2015 06:29:19 81.34, 130.61 60.88 06/25/2015 06:29:30 81.34, 130.68 60.89 1.26 11
4 06/25/2015 07:19:58 -81.35, -61.40 119.04 06/25/2015 07:18:56 -81.35, -61.39 119.07 0.43 62
5 06/28/2015 02:03:37 81.35,-162.88 60.97 06/28/2015 02:03:48 81.35,-162.75 60.99 2.09 11
6 06/28/2015 02:54:17 -81.35, 4.76 118.99 06/28/2015 02:53:15 -81.34, 4.83 119.02 1.22 62
7 06/30/2015 21:37:56 81.35, -96.41 61.11 06/30/2015 21:38:08 81.34, -96.43 61.11 0.49 12
8 06/30/2015 22:28:36 -81.35, 71.26 118.85 06/30/2015 22:27:35 -81.34, 71.18 118.90 1.61 61
9 07/03/2015 17:12:15 81.35, -30.00 61.30 07/03/2015 17:12:28 81.34, -29.97 61.30 0.45 13




NCC Satellite Simultaneous Nadir Overpasses (SNOs) Prediction Service
